World > North America > United States > New York

Hourly Oriskany, NY Regional Weather

Feedback E-mail the Weather

Latest News

Oriskany, NY Weather Maps

°F °C°F °C
Oriskany Weather Map
UTC Time: 5/26/2022, 18:15
Your Time:

Oriskany, NY Regional Weather

Expires:202205261900;;614705
ASUS41 KBGM 261810
RWRBGM

REGIONAL WEATHER ROUNDUP
NATIONAL WEATHER SERVICE BINGHAMTON NY
200 PM EDT THU MAY 26 2022

Note: "fair" indicates few or no clouds below 12,000 feet with no
significant weather and/or obstructions to visibility.

* = Station(s) that does not report precipitation, such as rain, 
snow, etc, also no thunder or fog.


NYZ009-015>018-022>025-036-037-044>046-055>057-062-261900
...Central New York...
  
CITY           SKY/WX    TMP DP  RH WIND       PRES   REMARKS
Binghamton     MOSUNNY   70  56  61 S12G23    30.11F                  
Cortland       FAIR      73  55  53 S9G18     30.08F                  
Dansville      PTSUNNY   80  60  50 SE7G18    29.99F                  
Elmira         PTSUNNY   75  55  49 S14G24    30.06F                  
Endicott       MOCLDY    72  55  56 S9G16     30.10F                  
Ithaca         MOSUNNY   75  56  51 S17       30.07F                  
Hamilton       CLOUDY    70  52  52 S16       30.08F                  
Monticello     CLOUDY    67  53  61 S6        30.20F                  
Norwich        SUNNY     70  54  56 S15G25    30.13F                  
Oneonta        SUNNY     68  54  60 SW9G20    30.14F                  
Penn Yan       MOSUNNY   79  54  41 S17G26    30.03F                  
Rome           CLOUDY    76  54  46 SE10      30.06F                  
Seneca Falls   CLEAR     81  52  36 S15G23    30.01F                  
Sidney         SUNNY     73  57  56 S13G21    30.11F                  
Skaneateles    FAIR      77  57  50 VRB7G22   30.04F                  
Syracuse       PTSUNNY   78  55  44 S16       30.02F                  
$$
 

SKY/WX - Weather  TMP - Temperature  DP - Dew Point  RH - Humidity
WIND - Wind Direction/Speed PRES - Barometric Pressure VSB - Visibility
WCI - Wind Chill Index E13G22 Wind - East Wind 13 mph/Gusts of 22 mph

Trending Headlines

Oriskany Radar Loop



Oriskany Quick Facts


National Two Day Weather Forecast


E-mail the Oriskany Weather Forecast

Voice your opinion or tell us about page issues...